Location: Newark
(33.6439°N, 114.9881°W)
Time: 14:30:42
(UTC+00:00)

A-11 Canister half - Pass Details

Date: 28 August 2019
Orbit: 1527 x 1682 km, 47.3° (Epoch: 16 September)

Event Time Altitude Azimuth Distance (km) Brightness Sun altitude
Rises 16:16:49 0° 214° (SSW) 4,745 11.4 37.5°
Reaches altitude 10° 16:19:55 10° 210° (SSW) 3,783 11.0 38.1°
Maximum altitude 16:29:17 57° 134° (SE) 1,858 10.9 39.9°
Drops below altitude 10° 16:38:58 10° 59° (ENE) 3,911 11.7 41.9°
Sets 16:42:13 0° 56° (NE) 4,915 12.0 42.5°
